sat.trackr.live / text

‹ back to catalog

ONEWEB-0381

NORAD 49307 · 2021-090AE

PAYLOAD ACTIVE UNKNOWN

§ Identity

Operator
Country
UK
Launch date
2021-10-14
Launch site
VOSTO
Launch vehicle
Mass (kg)
RCS (m²)

Purposes: comms

External: N2YO · Heavens-Above · Gunter

§ Orbital elements

Epoch: 2026-09-19T22:20:12.447168Z

Period
109.03 min
Inclination
87.9139°
Eccentricity
0.0002189
Mean motion
13.20772611 rev/d
Perigee alt
1,180.1 km
Apogee alt
1,183.4 km
Semi-major
7,559.9 km
B*
2.3905e-4
RAAN
255.5401°
Arg perigee
93.0777°
Mean anomaly
267.0607°
Rev number
24,233

§ Raw data

ONEWEB-03811 49307U 21090AE  26262.93069962  .00000110  00000+0  23905-3 0  99902 49307  87.9139 255.5401 0002189  93.0777 267.0607 13.20772611242339

JSON: /api/v1/satellites/49307 · /tle

For live sub-satellite position, see the globe view (requires WebGL).

§ Visibility from observer

Set your observer location to see the next 7 days of passes ≥ 10°. The values pass through the URL so the page stays shareable.

No JS? Fill the form by hand. The geolocation button needs JavaScript.